HB9EKO-12 Weather Reports


time (UTC)temp
C
wind
direction
speed
KPH
gust
KPH
rain 1hr
cm
rain 24hr
cm
rain mn
cm
humidity
%
barometer
mb
20260906072702 18 0 0.0 0.0 0.00 0.00 0.00 58 1027.0
20260906071157 18 0 0.0 0.0 0.00 0.00 0.00 58 1027.0
20260906065652 17 0 0.0 0.0 0.00 0.00 0.00 64 1027.0
20260906064146 16 0 0.0 0.0 0.00 0.00 0.00 68 1027.0
20260906062641 16 0 0.0 0.0 0.00 0.00 0.00 71 1027.0
20260906061136 15 0 0.0 0.0 0.00 0.00 0.00 79 1027.0
20260906055631 15 0 0.0 0.0 0.00 0.00 0.00 83 1027.0
20260906054125 14 0 0.0 0.0 0.00 0.00 0.00 88 1027.0
20260906051115 14 0 0.0 0.0 0.00 0.00 0.00 90 1026.0
20260906045610 14 0 0.0 0.0 0.00 0.00 0.00 96 1026.0
20260906044104 13 0 0.0 0.0 0.00 0.00 0.00 10 1026.0
20260906042559 14 0 0.0 0.0 0.00 0.00 0.00 99 1026.0
20260906041054 14 0 0.0 0.0 0.00 0.00 0.00 95 1026.0
20260906035549 14 0 0.0 0.0 0.00 0.00 0.00 99 1026.0
20260906034044 15 0 0.0 0.0 0.00 0.00 0.00 99 1027.0
20260906032538 15 0 0.0 0.0 0.00 0.00 0.00 99 1026.0
20260906031033 15 0 0.0 0.0 0.00 0.00 0.00 10 1026.0
20260906025528 15 0 0.0 0.0 0.00 0.00 0.00 10 1026.0
20260906024023 15 0 0.0 0.0 0.00 0.00 0.00 10 1026.0
20260906022517 16 0 0.0 0.0 0.00 0.00 0.00 99 1026.0
20260906021012 16 0 0.0 0.0 0.00 0.00 0.00 97 1026.0
20260906015507 16 0 0.0 0.0 0.00 0.00 0.00 98 1026.0
20260906014002 16 0 0.0 0.0 0.00 0.00 0.00 10 1026.0
20260906012456 16 0 0.0 0.0 0.00 0.00 0.00 10 1026.0
20260906010951 16 0 0.0 0.0 0.00 0.00 0.00 10 1026.0
20260906005446 16 0 0.0 0.0 0.00 0.00 0.00 10 1026.0
20260906003941 16 0 0.0 0.0 0.00 0.00 0.00 10 1026.0
20260906002435 17 0 0.0 0.0 0.00 0.00 0.00 95 1026.0
20260906000930 16 0 0.0 0.0 0.00 0.00 0.00 99 1026.0
20260905235425 16 0 0.0 0.0 0.00 0.00 0.00 95 1026.0
20260905233920 16 0 0.0 0.0 0.00 0.00 0.00 94 1026.0
20260905232415 16 0 0.0 0.0 0.00 0.00 0.00 93 1026.0
20260905230909 16 0 0.0 0.0 0.00 0.00 0.00 91 1027.0
20260905225404 17 0 0.0 0.0 0.00 0.00 0.00 88 1027.0
20260905223859 17 0 0.0 0.0 0.00 0.00 0.00 89 1027.0
20260905222354 17 0 0.0 0.0 0.00 0.00 0.00 84 1027.0
20260905220848 18 0 0.0 0.0 0.00 0.00 0.00 83 1026.0
20260905215343 20 0 0.0 0.0 0.00 0.00 0.00 77 1026.0
20260905213838 18 0 0.0 0.0 0.00 0.00 0.00 81 1026.0
20260905212333 19 0 0.0 0.0 0.00 0.00 0.00 79 1026.0
20260905210827 18 0 0.0 0.0 0.00 0.00 0.00 78 1026.0
20260905205322 19 0 0.0 0.0 0.00 0.00 0.00 77 1026.0
20260905203817 19 0 0.0 0.0 0.00 0.00 0.00 77 1026.0
20260905202312 19 0 0.0 0.0 0.00 0.00 0.00 75 1026.0
20260905200806 20 0 0.0 0.0 0.00 0.00 0.00 73 1026.0
20260905195301 20 0 0.0 0.0 0.00 0.00 0.00 73 1026.0
20260905193756 20 0 0.0 0.0 0.00 0.00 0.00 70 1026.0
20260905192251 21 0 0.0 0.0 0.00 0.00 0.00 67 1026.0
20260905190745 21 0 0.0 0.0 0.00 0.00 0.00 65 1026.0
20260905185240 22 0 0.0 0.0 0.00 0.00 0.00 64 1026.0
20260905183735 21 0 0.0 0.0 0.00 0.00 0.00 64 1025.0
20260905182230 22 0 0.0 0.0 0.00 0.00 0.00 62 1025.0
20260905180725 22 0 0.0 0.0 0.00 0.00 0.00 60 1025.0
20260905175219 23 0 0.0 0.0 0.00 0.00 0.00 59 1025.0
20260905173714 23 0 0.0 0.0 0.00 0.00 0.00 58 1025.0
20260905172209 23 0 0.0 0.0 0.00 0.00 0.00 56 1025.0
20260905170704 25 0 0.0 0.0 0.00 0.00 0.00 51 1025.0
20260905165158 27 0 0.0 0.0 0.00 0.00 0.00 47 1025.0
20260905163653 28 0 0.0 0.0 0.00 0.00 0.00 46 1024.0
20260905162148 27 0 0.0 0.0 0.00 0.00 0.00 48 1025.0
20260905160643 26 0 0.0 0.0 0.00 0.00 0.00 58 1025.0
20260905155137 23 0 0.0 0.0 0.00 0.00 0.00 62 1025.0
20260905153632 26 0 0.0 0.0 0.00 0.00 0.00 55 1025.0
20260905152127 22 0 0.0 0.0 0.00 0.00 0.00 66 1025.0
20260905150622 21 0 0.0 0.0 0.00 0.00 0.00 69 1025.0
20260905145116 22 0 0.0 0.0 0.00 0.00 0.00 68 1025.0
20260905143611 21 0 0.0 0.0 0.00 0.00 0.00 68 1025.0
20260905142106 21 0 0.0 0.0 0.00 0.00 0.00 68 1025.0
20260905140601 21 0 0.0 0.0 0.00 0.00 0.00 68 1025.0
20260905135055 21 0 0.0 0.0 0.00 0.00 0.00 69 1025.0
20260905133550 21 0 0.0 0.0 0.00 0.00 0.00 70 1025.0
20260905132045 20 0 0.0 0.0 0.00 0.00 0.00 74 1025.0
20260905130540 20 0 0.0 0.0 0.00 0.00 0.00 73 1025.0
20260905125034 20 0 0.0 0.0 0.00 0.00 0.00 70 1025.0
20260905123529 21 0 0.0 0.0 0.00 0.00 0.00 63 1025.0
20260905122024 23 0 0.0 0.0 0.00 0.00 0.00 63 1025.0
20260905120519 23 0 0.0 0.0 0.00 0.00 0.00 63 1024.0
20260905115013 23 0 0.0 0.0 0.00 0.00 0.00 63 1024.0
20260905113508 22 0 0.0 0.0 0.00 0.00 0.00 65 1024.0
20260905112003 22 0 0.0 0.0 0.00 0.00 0.00 65 1024.0
20260905110458 22 0 0.0 0.0 0.00 0.00 0.00 66 1024.0
20260905104953 22 0 0.0 0.0 0.00 0.00 0.00 66 1024.0
20260905103447 22 0 0.0 0.0 0.00 0.00 0.00 65 1024.0
20260905101942 22 0 0.0 0.0 0.00 0.00 0.00 64 1024.0
20260905100437 22 0 0.0 0.0 0.00 0.00 0.00 66 1024.0
20260905094932 22 0 0.0 0.0 0.00 0.00 0.00 66 1024.0
20260905093426 22 0 0.0 0.0 0.00 0.00 0.00 66 1024.0
20260905091921 22 0 0.0 0.0 0.00 0.00 0.00 65 1024.0
20260905090416 22 0 0.0 0.0 0.00 0.00 0.00 65 1024.0
20260905084911 23 0 0.0 0.0 0.00 0.00 0.00 65 1023.0
20260905083405 22 0 0.0 0.0 0.00 0.00 0.00 66 1023.0
20260905081900 22 0 0.0 0.0 0.00 0.00 0.00 68 1023.0
20260905080355 22 0 0.0 0.0 0.00 0.00 0.00 69 1023.0
20260905074850 22 0 0.0 0.0 0.00 0.00 0.00 70 1023.0